Location: Gorze? G�rny
(49.8500°N, 19.5000°E)
Time: 03:03:46
(UTC+00:00)

Cosmos 1743 - Pass Details

Date: 13 May 2021
Orbit: 510 x 525 km, 82.6° (Epoch: 20 June)

Event Time Altitude Azimuth Distance (km) Brightness Sun altitude
Rises 20:38:37 0° 351° (N) 2,655 7.7 -16.6°
Reaches altitude 10° 20:40:46 10° 354° (N) 1,765 6.5 -16.8°
Maximum altitude 20:44:38 73° 80° (E) 550 2.7 -17.1°
Enters shadow 20:45:55 40° 154° (SSE) 785 3.1 -17.2°
